カタログに戻る

STARLINK-3801

運用中通信VLEO
NORAD 52356·PAYLOAD·🇺🇸 United States

打ち上げ Apr 29, 2022 から Cape Canaveral Space Force Station

Loading…

次のパス (今後24時間)

TLE

最新Source: CelesTrak SupGP

元期: Sep 15, 2026, 02:09 UTC

1 52356C 22045AB  26258.09006944 -.00035393  00000+0 -10459-2 0  2582
2 52356  53.1592  54.7011 0001174  82.0140 214.2251 15.34401510    16

AllMySatでSTARLINK-3801をリアルタイム追跡

Download on the App Store